{"data":{"norad_id":40042,"epoch":"2026-05-25T00:11:45.925152Z","epoch_age_seconds":64492,"freshness":"FRESH","line1":"1 40042U 14033AJ  26145.00817043  .00016998  00000+0  54638-3 0  9993","line2":"2 40042  98.0965 169.0919 0006324 214.9424 145.1402 15.32332554650040","mean_motion":15.32332554,"eccentricity":0.0006324,"inclination_deg":98.0965,"raan_deg":169.0919,"arg_perigee_deg":214.9424,"mean_anomaly_deg":145.1402,"bstar":0.00054638,"rev_number":65004,"period_min":93.974378880161,"perigee_km":464.52499559228,"apogee_km":473.18507111607,"semimajor_km":6846.9920333542,"source":"CELESTRAK","updated_at":"2026-05-25T13:38:25.522897Z"}}